Location: DaVinci Observatory
(43.1080°N, 78.6453°W)
Time: 07:33:12
(UTC-04:00)

Tiangong 2 - Pass Details

Date: 15 October 2017
Orbit: 388 x 392 km, 42.8° (Epoch: 17 October)

Event Time Altitude Azimuth Distance (km) Brightness Sun altitude
Exits shadow 05:35:48 59° 94° (E) 453 1.6 -21.3°
Drops below altitude 10° 05:38:30 10° 90° (E) 1,421 5.1 -20.8°
Sets 05:40:34 0° 90° (E) 2,277 6.5 -20.4°
